Voltar ao catálogo

COSMOS 2251 DEB

AtivoLEO
NORAD 34061·DEBRIS·🇷🇺 Russia

Lançado Jun 16, 1993 de Plesetsk Cosmodrome

Loading…

Próximas Passagens (próximas 24 horas)

TLE

AtualizadoSource: Space-Track

Época: Sep 14, 2026, 07:06 UTC

1 34061U 93036JY  26257.29607845  .00000484  00000-0  15896-3 0  9996
2 34061  74.0376 113.8129 0019861 128.9284 354.3569 14.40825179921487

Acompanhe COSMOS 2251 DEB em tempo real com AllMySat

Download on the App Store